FW6934 Weather Reports


time (UTC)temp
F
wind
direction
speed
knots
gust
knots
rain 1hr
in
rain 24hr
in
rain mn
in
humidity
%
barometer
mb
20260906150604 56 190 0.0 0.0 0.07 0.10 0.10 89 1003.6
20260906150037 56 190 0.0 0.0 0.06 0.09 0.09 89 1003.6
20260906145542 56 190 0.0 0.0 0.06 0.08 0.09 88 1003.7
20260906145050 56 190 0.0 0.0 0.06 0.08 0.08 88 1003.6
20260906144519 56 190 0.0 0.0 0.06 0.07 0.07 88 1003.7
20260906144024 56 190 0.0 0.0 0.05 0.06 0.06 88 1003.6
20260906143535 56 190 0.0 0.0 0.05 0.06 0.06 88 1003.7
20260906143046 56 190 0.0 0.0 0.04 0.05 0.05 88 1003.5
20260906142554 56 190 0.0 0.0 0.03 0.04 0.05 88 1003.5
20260906142101 56 190 0.0 0.0 0.03 0.04 0.04 88 1003.5
20260906141529 56 190 0.0 0.0 0.03 0.04 0.04 88 1003.4
20260906141037 56 190 0.0 0.0 0.02 0.03 0.03 88 1003.4
20260906140546 56 190 0.0 0.0 0.02 0.03 0.03 88 1003.3
20260906140035 56 190 0.0 0.0 0.02 0.03 0.03 87 1003.2
20260906135519 56 190 0.0 0.0 0.01 0.02 0.02 87 1003.1
20260906135026 56 190 0.0 0.0 0.01 0.02 0.02 87 1003.0
20260906134555 56 190 0.0 0.0 0.00 0.01 0.01 87 1003.0
20260906134101 56 190 0.0 0.0 0.00 0.01 0.01 87 1002.9
20260906133502 56 190 0.0 0.9 0.01 0.01 0.01 87 1002.8
20260906133026 56 190 0.0 1.7 0.01 0.01 0.01 87 1002.9
20260906132532 56 190 0.9 1.7 0.01 0.01 0.01 87 1002.8
20260906132040 56 190 0.9 1.7 0.01 0.01 0.01 87 1002.8
20260906131508 56 190 0.0 1.7 0.01 0.01 0.01 87 1002.8
20260906131025 56 190 0.9 1.7 0.01 0.01 0.01 86 1002.8
20260906130529 56 190 0.0 1.7 0.01 0.01 0.01 86 1002.8
20260906130110 56 190 0.0 1.7 0.01 0.01 0.01 86 1002.9
20260906125501 57 190 0.9 1.7 0.01 0.01 0.01 86 1002.8
20260906125104 57 190 0.0 1.7 0.01 0.01 0.01 86 1002.9
20260906124545 57 190 0.9 1.7 0.01 0.01 0.01 86 1002.9
20260906124051 57 188 0.0 1.7 0.01 0.01 0.01 85 1002.9
20260906123601 57 188 0.0 1.7 0.01 0.01 0.01 85 1002.9
20260906123038 57 188 0.0 1.7 0.00 0.00 0.00 85 1003.0
20260906122538 57 188 0.0 2.6 0.00 0.00 0.00 85 1003.1
20260906122045 57 188 0.9 2.6 0.00 0.00 0.00 85 1003.0
20260906121509 57 188 0.0 1.7 0.00 0.00 0.00 85 1003.0
20260906121018 57 188 0.0 2.6 0.00 0.00 0.00 85 1003.0
20260906120539 56 188 0.0 2.6 0.00 0.00 0.00 85 1003.1
20260906115508 56 159 0.9 2.6 0.00 0.00 0.00 85 1003.1
20260906115019 56 158 0.0 1.7 0.00 0.00 0.00 85 1003.1
20260906114558 56 158 0.0 2.6 0.00 0.00 0.00 85 1003.2
20260906114059 56 158 0.0 2.6 0.00 0.00 0.00 85 1003.2
20260906113504 57 254 0.0 0.0 0.00 0.00 0.00 85 1003.1
20260906113044 57 254 0.0 0.0 0.00 0.00 0.00 85 1003.1
20260906112544 57 254 0.0 0.0 0.00 0.00 0.00 85 1003.1
20260906112055 57 254 0.0 0.0 0.00 0.00 0.00 85 1003.1
20260906111550 57 254 0.0 0.0 0.00 0.00 0.00 85 1003.0
20260906111049 57 254 0.0 0.9 0.00 0.00 0.00 85 1003.0
20260906110546 57 254 0.0 1.7 0.00 0.00 0.00 85 1003.0
20260906110014 57 254 0.9 1.7 0.00 0.00 0.00 85 1003.0
20260906105535 57 254 0.0 1.7 0.00 0.00 0.00 85 1002.9
20260906105035 57 254 0.9 1.7 0.00 0.00 0.00 84 1002.9
20260906104603 57 254 0.0 0.9 0.00 0.00 0.00 84 1003.0
20260906104009 57 254 0.0 0.9 0.00 0.00 0.00 84 1003.0
20260906103508 57 254 0.0 0.9 0.00 0.00 0.00 84 1003.1
20260906103046 57 254 0.0 1.7 0.00 0.00 0.00 84 1003.0
20260906102553 57 254 0.0 2.6 0.00 0.00 0.00 84 1002.9
20260906102100 57 254 0.0 2.6 0.00 0.00 0.00 84 1002.9
20260906101532 57 254 0.0 0.9 0.00 0.00 0.00 84 1002.9
20260906101038 57 254 0.0 0.9 0.00 0.00 0.00 84 1002.8
20260906100555 57 254 0.0 1.7 0.00 0.00 0.00 84 1002.8
20260906100031 57 254 0.0 1.7 0.00 0.00 0.00 84 1002.8
20260906095528 57 254 0.0 2.6 0.00 0.00 0.00 84 1002.8
20260906095036 57 254 0.9 2.6 0.00 0.00 0.00 84 1002.8
20260906094611 57 254 0.0 0.9 0.00 0.00 0.00 84 1002.8
20260906094004 57 254 0.0 0.9 0.00 0.00 0.00 84 1002.8
20260906093510 57 254 0.0 1.7 0.00 0.00 0.00 84 1002.7
20260906093100 57 254 0.0 1.7 0.00 0.00 0.00 83 1002.7
20260906092600 57 254 0.0 0.0 0.00 0.00 0.00 83 1002.8
20260906092011 57 254 0.0 0.9 0.00 0.00 0.00 83 1002.8
20260906091548 57 254 0.0 1.7 0.00 0.00 0.00 83 1002.9
20260906091056 57 254 0.0 1.7 0.00 0.00 0.00 83 1002.9
20260906090501 58 254 0.0 1.7 0.00 0.00 0.00 83 1002.8
20260906090107 58 254 0.9 1.7 0.00 0.01 0.00 83 1002.7
20260906085549 58 254 0.0 0.9 0.00 0.01 0.00 83 1002.7
20260906085050 58 254 0.0 1.7 0.00 0.01 0.00 83 1002.7
20260906084533 58 254 0.0 1.7 0.00 0.01 0.00 83 1002.8
20260906084036 58 254 0.0 0.9 0.00 0.01 0.00 83 1002.9
20260906083538 58 254 0.0 1.7 0.00 0.01 0.00 83 1002.8
20260906083031 58 254 0.0 1.7 0.00 0.01 0.00 83 1002.8
20260906082526 58 254 0.0 1.7 0.00 0.01 0.00 83 1002.8
20260906082036 58 254 0.0 1.7 0.00 0.01 0.00 83 1002.8
20260906081603 58 254 0.0 1.7 0.00 0.01 0.00 83 1002.8
20260906081020 58 254 0.0 0.9 0.00 0.01 0.00 83 1002.8
20260906080526 58 254 0.0 1.7 0.00 0.01 0.00 83 1002.8
20260906080055 58 254 0.0 1.7 0.00 0.01 0.00 83 1002.8
20260906075558 58 254 0.0 0.9 0.00 0.01 0.00 83 1002.8
20260906075104 58 254 0.0 0.9 0.00 0.01 0.00 83 1002.8
20260906074546 58 254 0.0 1.7 0.00 0.01 0.00 84 1002.8
20260906074038 57 254 0.0 1.7 0.00 0.01 0.00 84 1002.8
20260906073549 57 252 0.0 0.9 0.00 0.01 0.00 84 1002.9
20260906073019 57 252 0.0 2.6 0.00 0.01 0.00 84 1003.0
20260906072524 57 252 0.9 2.6 0.00 0.01 0.00 84 1002.9
20260906072032 57 284 0.0 1.7 0.00 0.01 0.00 84 1003.0
20260906071502 57 284 0.0 1.7 0.00 0.01 0.00 84 1003.0
20260906071006 57 284 0.9 2.6 0.00 0.01 0.00 84 1003.1
20260906070514 57 291 0.9 2.6 0.00 0.01 0.00 84 1003.0
20260906070026 57 292 0.0 1.7 0.00 0.01 0.01 83 1003.2
20260906065535 57 292 0.0 1.7 0.00 0.01 0.01 83 1003.2
20260906065035 57 292 0.0 1.7 0.00 0.01 0.01 83 1003.2
20260906064504 57 292 0.9 1.7 0.00 0.01 0.01 83 1003.2
20260906064013 57 292 0.9 1.7 0.00 0.01 0.01 83 1003.2
20260906063526 57 292 0.0 1.7 0.00 0.01 0.01 83 1003.2
20260906063054 57 292 0.0 1.7 0.00 0.01 0.01 83 1003.2
20260906062557 57 292 0.9 1.7 0.00 0.01 0.01 83 1003.2
20260906062101 57 292 0.0 1.7 0.00 0.01 0.01 82 1003.2
20260906061510 57 292 0.0 2.6 0.00 0.01 0.01 82 1003.1
20260906061018 57 292 1.7 2.6 0.00 0.01 0.01 82 1003.2
20260906060540 57 292 0.0 1.7 0.00 0.01 0.01 82 1003.3
20260906060054 57 292 0.0 1.7 0.00 0.01 0.01 82 1003.2
20260906055600 57 292 0.9 2.6 0.00 0.01 0.01 82 1003.2
20260906055008 57 292 1.7 2.6 0.00 0.01 0.01 81 1003.2
20260906054542 57 292 0.9 1.7 0.00 0.01 0.01 81 1003.2
20260906054042 58 292 0.9 2.6 0.00 0.01 0.01 81 1003.2
20260906053553 58 292 0.9 2.6 0.00 0.01 0.01 81 1003.3
20260906053030 58 296 0.0 0.9 0.00 0.01 0.01 80 1003.3
20260906052539 58 296 0.0 1.7 0.00 0.01 0.01 80 1003.4
20260906052043 58 296 0.0 1.7 0.00 0.01 0.01 80 1003.4
20260906051523 58 296 0.9 1.7 0.00 0.01 0.01 79 1003.4
20260906051024 58 296 0.9 2.6 0.00 0.01 0.01 79 1003.3
20260906050533 58 296 0.0 2.6 0.00 0.01 0.01 79 1003.4
20260906050004 58 297 0.9 2.6 0.00 0.01 0.01 79 1003.4
20260906045556 58 298 0.9 2.6 0.00 0.01 0.01 79 1003.4
20260906045043 58 281 0.9 2.6 0.00 0.01 0.01 78 1003.5
20260906044504 58 235 0.9 2.6 0.00 0.01 0.01 78 1003.5
20260906044053 58 232 0.0 2.6 0.00 0.01 0.01 77 1003.5
20260906043542 58 232 0.9 2.6 0.00 0.01 0.01 77 1003.5
20260906043015 59 223 1.7 2.6 0.00 0.01 0.01 77 1003.6
20260906042602 59 226 0.9 2.6 0.00 0.01 0.01 76 1003.6
20260906042049 59 294 0.0 4.3 0.00 0.01 0.01 76 1003.7
20260906041058 59 258 0.0 0.9 0.00 0.01 0.01 76 1003.6
20260906040609 59 258 0.0 1.7 0.00 0.01 0.01 75 1003.5
20260906040042 59 258 0.0 1.7 0.00 0.01 0.01 74 1003.4
20260906035551 59 258 0.0 1.7 0.00 0.01 0.01 74 1003.4
20260906035056 59 258 0.9 1.7 0.00 0.01 0.01 74 1003.3
20260906034535 60 258 0.9 1.7 0.00 0.01 0.01 73 1003.4
20260906034035 60 258 0.9 2.6 0.00 0.01 0.01 73 1003.3
20260906033544 60 258 0.9 2.6 0.00 0.01 0.01 73 1003.2
20260906033010 60 258 0.9 2.6 0.00 0.01 0.01 73 1003.2
20260906032526 61 258 0.9 2.6 0.00 0.01 0.01 74 1003.1
20260906032032 61 258 0.9 2.6 0.00 0.01 0.01 73 1003.2
20260906031600 61 258 0.0 1.7 0.00 0.01 0.01 72 1003.1
20260906031007 61 258 0.0 2.6 0.00 0.01 0.01 71 1003.1
20260906030514 61 258 0.9 2.6 0.00 0.01 0.01 71 1003.0
20260906030054 62 258 0.9 2.6 0.00 0.01 0.01 72 1003.0
20260906025600 62 258 0.9 2.6 0.00 0.01 0.01 71 1003.0
20260906025020 62 258 0.9 2.6 0.00 0.01 0.01 70 1003.0
20260906024607 62 258 0.9 2.6 0.00 0.01 0.01 69 1003.0
20260906024055 63 258 0.0 1.7 0.00 0.01 0.01 69 1003.0
20260906023558 63 258 0.9 2.6 0.00 0.01 0.01 69 1003.0
20260906023038 63 258 0.9 3.5 0.00 0.01 0.01 69 1003.0
20260906022547 63 258 0.9 3.5 0.00 0.01 0.01 68 1003.0
20260906022052 63 258 1.7 3.5 0.00 0.01 0.01 68 1003.1
20260906021506 64 258 0.9 3.5 0.00 0.01 0.01 68 1003.0
20260906021023 64 263 0.9 3.5 0.00 0.01 0.01 67 1003.1
20260906020530 64 264 0.9 2.6 0.00 0.01 0.01 66 1003.1
20260906020106 64 264 0.0 0.0 0.00 0.01 0.01 66 1003.1
20260906015510 65 264 0.0 1.7 0.00 0.01 0.01 65 1003.1
20260906015022 65 264 0.0 1.7 0.00 0.01 0.01 64 1003.2
20260906014556 65 264 0.0 2.6 0.00 0.01 0.01 64 1003.1
20260906014007 66 264 0.9 2.6 0.00 0.01 0.01 63 1003.2
20260906013517 66 264 0.9 2.6 0.00 0.01 0.01 63 1003.2
20260906013036 67 270 0.9 1.7 0.00 0.01 0.01 63 1003.3
20260906012546 67 270 0.0 2.6 0.00 0.01 0.01 62 1003.2
20260906012049 67 270 0.9 3.5 0.00 0.01 0.01 61 1003.2
20260906011518 68 305 0.9 3.5 0.00 0.01 0.01 60 1003.2
20260906011034 68 283 0.9 4.3 0.00 0.01 0.01 58 1003.1
20260906010539 68 292 0.9 4.3 0.00 0.01 0.01 59 1003.2
20260906010027 68 302 2.6 4.3 0.00 0.01 0.01 59 1003.1
20260906005527 69 323 0.9 5.2 0.00 0.01 0.01 62 1003.0
20260906005034 69 284 2.6 5.2 0.00 0.01 0.01 64 1003.0
20260906004502 69 9 0.9 5.2 0.00 0.01 0.01 60 1003.0
20260906004015 69 15 1.7 5.2 0.00 0.01 0.01 58 1003.1
20260906003522 69 44 3.5 5.2 0.00 0.01 0.01 59 1003.2
20260906003052 69 67 1.7 5.2 0.00 0.01 0.01 56 1003.2
20260906002557 69 42 2.6 3.5 0.00 0.01 0.01 62 1003.1
20260906002005 69 51 0.0 2.6 0.00 0.01 0.01 60 1003.3
20260906001538 69 54 0.0 1.7 0.00 0.01 0.01 59 1003.2
20260906001032 69 40 0.0 1.7 0.00 0.01 0.01 60 1003.2
20260906000539 68 34 0.9 3.5 0.00 0.01 0.01 59 1003.2
20260906000004 68 34 1.7 3.5 0.00 0.02 0.01 60 1003.1
20260905235518 68 45 1.7 3.5 0.00 0.02 0.01 61 1003.0
20260905235025 68 343 1.7 3.5 0.00 0.02 0.01 61 1003.2
20260905234556 68 332 0.0 2.6 0.00 0.02 0.01 59 1003.2
20260905234102 68 332 0.9 2.6 0.00 0.02 0.01 65 1003.2
20260905233502 68 241 0.0 3.5 0.00 0.02 0.01 61 1003.2
20260905233044 68 236 0.9 4.3 0.00 0.02 0.01 57 1003.3
20260905232551 67 325 1.7 4.3 0.00 0.02 0.01 60 1003.2
20260905232057 67 54 0.9 3.5 0.00 0.02 0.01 61 1003.2
20260905231541 68 322 0.9 2.6 0.00 0.02 0.01 58 1003.3
20260905231039 69 133 0.0 1.7 0.00 0.02 0.01 59 1003.4
20260905230549 69 133 0.9 5.2 0.00 0.02 0.01 57 1003.4
20260905230108 69 139 0.9 5.2 0.00 0.02 0.01 58 1003.5
20260905225505 69 190 0.9 3.5 0.00 0.02 0.01 58 1003.6
20260905225013 69 26 0.9 3.5 0.00 0.02 0.01 57 1003.5
20260905224550 70 45 0.9 3.5 0.00 0.02 0.01 58 1003.5
20260905224056 69 202 0.0 8.7 0.00 0.02 0.01 60 1003.6
20260905223604 69 217 0.9 8.7 0.00 0.02 0.01 61 1003.6
20260905223043 68 61 1.7 5.2 0.00 0.02 0.01 65 1003.7
20260905222544 68 355 3.5 5.2 0.00 0.02 0.01 66 1003.7
20260905222049 68 37 2.6 3.5 0.00 0.02 0.01 63 1003.8
20260905221523 68 63 0.9 2.6 0.00 0.02 0.01 68 1003.9
20260905221034 68 279 0.9 2.6 0.00 0.02 0.01 67 1003.9
20260905220537 68 265 0.9 2.6 0.00 0.02 0.01 64 1003.9
20260905220003 68 57 0.0 2.6 0.00 0.02 0.01 62 1003.9
20260905215523 68 57 0.9 2.6 0.00 0.02 0.01 63 1003.9
20260905215027 68 70 0.9 2.6 0.00 0.02 0.01 63 1003.9
20260905214555 67 70 0.9 2.6 0.00 0.02 0.01 65 1004.0
20260905214001 67 62 0.9 2.6 0.00 0.02 0.01 66 1004.0
20260905213510 67 64 0.0 2.6 0.00 0.02 0.01 68 1004.0
20260905213054 67 55 0.0 5.2 0.00 0.02 0.01 69 1004.0
20260905212555 66 65 1.7 5.2 0.00 0.02 0.01 66 1004.2
20260905212005 66 288 0.0 2.6 0.00 0.02 0.01 68 1004.1
20260905211545 66 298 0.9 3.5 0.00 0.02 0.01 70 1004.2
20260905211047 66 312 0.9 5.2 0.00 0.02 0.01 66 1004.2
20260905210556 66 269 1.7 5.2 0.00 0.02 0.01 66 1004.2
20260905210007 67 53 2.6 3.5 0.00 0.02 0.01 71 1004.3
20260905205513 66 5 0.0 4.3 0.00 0.02 0.01 69 1004.3
20260905205021 67 12 0.9 4.3 0.00 0.02 0.01 69 1004.3
20260905204607 67 51 2.6 4.3 0.00 0.02 0.01 69 1004.3
20260905204016 67 39 0.9 3.5 0.00 0.02 0.01 72 1004.3
20260905203522 66 30 0.9 3.5 0.00 0.02 0.01 68 1004.4
20260905203055 65 105 0.0 2.6 0.00 0.02 0.01 71 1004.4
20260905202555 65 13 0.0 3.5 0.00 0.02 0.01 68 1004.6
20260905202103 64 14 1.7 3.5 0.00 0.02 0.01 70 1004.5
20260905201538 64 311 0.0 2.6 0.00 0.02 0.01 73 1004.5
20260905201029 65 302 0.9 2.6 0.00 0.02 0.01 74 1004.5
20260905200540 65 259 0.9 2.6 0.00 0.02 0.01 67 1004.5
20260905200007 65 254 0.9 2.6 0.00 0.02 0.01 67 1004.6
20260905195526 65 182 0.9 2.6 0.00 0.02 0.01 69 1004.6
20260905195030 65 180 0.0 1.7 0.00 0.02 0.01 70 1004.6
20260905194557 65 180 0.0 1.7 0.00 0.02 0.01 69 1004.6
20260905194003 65 180 0.0 1.7 0.00 0.02 0.01 68 1004.8
20260905193512 64 180 0.0 2.6 0.00 0.02 0.01 69 1004.7
20260905193053 64 178 0.9 3.5 0.00 0.02 0.01 69 1004.7
20260905192600 64 137 0.9 3.5 0.00 0.02 0.01 70 1004.8
20260905192002 64 204 0.0 2.6 0.00 0.02 0.01 73 1004.9
20260905191539 64 203 0.9 3.5 0.00 0.02 0.01 69 1004.8
20260905191045 65 184 1.7 3.5 0.00 0.02 0.01 68 1004.8
20260905190551 64 180 0.9 2.6 0.00 0.02 0.01 70 1004.8
20260905190025 64 84 0.9 2.6 0.00 0.02 0.01 75 1004.9
20260905185531 63 335 0.0 2.6 0.00 0.02 0.01 76 1004.9
20260905185037 63 333 0.9 2.6 0.00 0.02 0.01 74 1005.0
20260905184503 63 360 0.9 3.5 0.00 0.02 0.01 75 1005.0
20260905184009 63 178 0.9 3.5 0.00 0.02 0.01 76 1005.1
20260905183515 63 344 0.0 1.7 0.00 0.02 0.01 81 1005.1
20260905183108 62 248 0.0 1.7 0.00 0.02 0.01 79 1005.1
20260905182557 62 249 0.9 2.6 0.00 0.02 0.01 80 1005.1
20260905182105 61 241 0.0 2.6 0.00 0.02 0.01 82 1005.2
20260905181539 61 267 0.9 2.6 0.00 0.02 0.01 84 1005.2
20260905181045 60 335 0.0 2.6 0.00 0.02 0.01 84 1005.2
20260905180553 60 335 0.0 2.6 0.00 0.02 0.01 85 1005.2
20260905180027 60 271 0.9 3.5 0.00 0.02 0.01 86 1005.2
20260905175535 60 286 1.7 3.5 0.00 0.02 0.01 87 1005.4
20260905175040 60 264 0.9 3.5 0.00 0.02 0.01 87 1005.3
20260905174505 59 282 1.7 3.5 0.00 0.02 0.01 87 1005.4
20260905174013 59 330 0.0 2.6 0.00 0.02 0.01 87 1005.3
20260905173527 59 332 0.9 1.7 0.00 0.02 0.01 87 1005.2
20260905173043 59 332 0.9 1.7 0.00 0.02 0.01 88 1005.3
20260905172550 59 332 0.0 1.7 0.00 0.02 0.01 88 1005.4
20260905172055 58 332 0.0 1.7 0.00 0.02 0.01 89 1005.4
20260905171533 58 332 0.0 3.5 0.00 0.02 0.01 89 1005.4
20260905171040 58 332 1.7 4.3 0.00 0.02 0.01 89 1005.4
20260905170547 58 65 0.0 4.3 0.00 0.02 0.01 89 1005.4
20260905170022 58 51 1.7 3.5 0.00 0.02 0.01 90 1005.4
20260905165526 57 37 0.9 3.5 0.00 0.02 0.01 90 1005.5
20260905165033 57 30 0.0 2.6 0.00 0.02 0.01 90 1005.4
20260905164504 57 18 0.9 2.6 0.00 0.02 0.01 90 1005.5
20260905164013 57 15 1.7 3.5 0.00 0.02 0.01 90 1005.4
20260905163523 57 67 1.7 3.5 0.00 0.02 0.01 90 1005.5
20260905163059 57 13 0.9 2.6 0.00 0.02 0.01 90 1005.5
20260905162519 57 9 0.9 2.6 0.00 0.02 0.01 90 1005.5
20260905162012 57 5 0.9 2.6 0.00 0.02 0.01 90 1005.4
20260905161547 57 41 0.0 3.5 0.00 0.02 0.01 90 1005.4
20260905161058 57 41 0.0 3.5 0.00 0.02 0.01 91 1005.4
20260905160506 57 39 2.6 3.5 0.00 0.02 0.01 91 1005.2
20260905160024 56 14 1.7 3.5 0.00 0.03 0.01 91 1005.3
20260905155529 56 14 0.9 3.5 0.00 0.03 0.01 91 1005.4
20260905155036 56 24 1.7 3.5 0.00 0.03 0.01 91 1005.4
20260905154544 56 63 0.0 2.6 0.00 0.03 0.01 91 1005.4
20260905154052 56 63 0.9 2.6 0.00 0.03 0.01 91 1005.4
20260905153556 55 86 0.0 2.6 0.00 0.03 0.01 91 1005.3
20260905153028 55 115 0.0 0.0 0.00 0.03 0.01 91 1005.3
20260905152534 55 115 0.0 0.0 0.00 0.03 0.01 91 1005.4
20260905152043 55 115 0.0 0.0 0.00 0.03 0.01 91 1005.4
20260905151607 55 115 0.0 0.0 0.00 0.03 0.01 91 1005.3
20260905151018 55 115 0.0 0.0 0.00 0.03 0.01 91 1005.4